Location: Saint-Hippolyte
(43.6394°N, 4.7559°E)
Time: 14:47:10
(UTC+00:00)

H-2A R/B - Pass Details

Date: 24 October 2020
Orbit: 733 x 837 km, 98.2° (Epoch: 24 November)

Event Time Altitude Azimuth Distance (km) Brightness Sun altitude
Exits shadow 18:51:41 - 172° (S) 2,935 4.9 -23.9°
Reaches altitude 10° 18:53:02 10° 173° (S) 2,409 4.4 -24.2°
Maximum altitude 18:58:22 72° 258° (WSW) 875 2.3 -25.1°
Drops below altitude 10° 19:03:51 10° 343° (NNW) 2,459 4.9 -26.1°
Sets 19:06:14 0° 345° (NNW) 3,399 5.6 -26.6°
